N4DRV Weather Reports


time (UTC)temp
C
wind
direction
speed
KPH
gust
KPH
rain 1hr
cm
rain 24hr
cm
rain mn
cm
humidity
%
barometer
mb
20260906162505 31 112 0.0 0.0 0.00 0.97 0.00 74 1016.3
20260906161504 30 122 0.0 0.0 0.00 0.97 0.00 76 1016.4
20260906160527 29 154 0.0 0.0 0.00 0.97 0.00 81 1016.6
20260906155500 28 34 0.0 0.0 0.00 0.97 0.00 86 1016.5
20260906154459 27 34 0.0 0.0 0.00 0.97 0.00 86 1016.7
20260906153502 27 34 0.0 0.0 0.00 0.97 0.00 89 1016.7
20260906152459 26 34 0.0 0.0 0.00 0.97 0.00 91 1016.7
20260906151458 26 34 0.0 0.0 0.00 0.97 0.00 91 1016.8
20260906150521 26 34 0.0 0.0 0.00 0.97 0.00 93 1016.8
20260906145515 26 34 0.0 0.0 0.00 0.97 0.00 93 1016.7
20260906144452 26 34 0.0 0.0 0.00 0.97 0.00 95 1016.6
20260906143451 25 34 0.0 0.0 0.00 0.97 0.00 96 1016.7
20260906142513 25 34 0.0 0.0 0.00 0.97 0.00 96 1016.8
20260906141450 25 34 0.0 0.0 0.00 0.97 0.00 97 1016.7
20260906140529 25 34 0.0 0.0 0.00 0.97 0.00 98 1016.6
20260906135506 24 34 0.0 0.0 0.00 0.97 0.00 98 1016.6
20260906134504 23 34 0.0 0.0 0.00 0.97 0.00 98 1016.5
20260906133502 23 34 0.0 0.0 0.00 0.97 0.00 100 1016.6
20260906132500 23 34 0.0 0.0 0.00 0.97 0.00 100 1016.7
20260906131502 23 34 0.0 0.0 0.00 0.97 0.00 100 1016.8
20260906130541 22 34 0.0 0.0 0.00 0.97 0.00 100 1016.7
20260906125453 22 34 0.0 0.0 0.00 0.97 0.00 100 1016.6
20260906124454 22 34 0.0 0.0 0.00 0.97 0.00 100 1016.5
20260906123454 22 34 0.0 0.0 0.00 0.97 0.00 100 1016.4
20260906122451 22 34 0.0 0.0 0.00 0.97 0.00 100 1016.3
20260906121452 21 34 0.0 0.0 0.00 0.97 0.00 100 1016.3
20260906120531 21 34 0.0 0.0 0.00 0.97 0.00 100 1016.3
20260906115505 21 34 0.0 0.0 0.00 0.97 0.00 100 1016.2
20260906114501 21 34 0.0 0.0 0.00 0.97 0.00 100 1016.1
20260906113505 21 34 0.0 0.0 0.00 0.97 0.00 100 1016.1
20260906112502 21 34 0.0 0.0 0.00 0.97 0.00 100 1016.1
20260906111500 21 34 0.0 0.0 0.00 0.97 0.00 100 1016.2
20260906110544 21 34 0.0 0.0 0.00 0.97 0.00 100 1016.2
20260906105456 21 34 0.0 0.0 0.00 0.97 0.00 100 1016.1
20260906104453 21 34 0.0 0.0 0.00 0.97 0.00 100 1016.2
20260906103452 21 34 0.0 0.0 0.00 0.97 0.00 100 1016.2
20260906102453 21 34 0.0 0.0 0.00 0.97 0.00 100 1015.9
20260906101450 21 34 0.0 0.0 0.00 0.97 0.00 100 1016.1
20260906100530 21 34 0.0 0.0 0.00 0.97 0.00 100 1015.9
20260906095507 21 34 0.0 0.0 0.00 0.97 0.00 100 1015.9
20260906094505 21 34 0.0 0.0 0.00 0.97 0.00 100 1015.9
20260906093505 21 34 0.0 0.0 0.00 0.97 0.00 100 1015.9
20260906092506 21 34 0.0 0.0 0.00 0.97 0.00 100 1016.0
20260906091503 21 34 0.0 0.0 0.00 0.97 0.00 100 1015.8
20260906090523 21 34 0.0 0.0 0.00 0.97 0.00 100 1015.9
20260906085456 21 34 0.0 0.0 0.00 0.97 0.00 100 1015.9
20260906084458 21 34 0.0 0.0 0.00 0.97 0.00 100 1015.9
20260906083458 21 34 0.0 0.0 0.00 0.97 0.00 100 1015.9
20260906082455 21 34 0.0 0.0 0.00 0.97 0.00 100 1015.9
20260906081457 21 34 0.0 0.0 0.00 0.97 0.00 100 1015.8
20260906080537 21 34 0.0 0.0 0.00 0.97 0.00 100 1015.8
20260906075449 21 34 0.0 0.0 0.00 0.97 0.00 100 1015.7
20260906074451 21 34 0.0 0.0 0.00 0.97 0.00 100 1015.8
20260906073451 21 34 0.0 0.0 0.00 0.97 0.00 100 1015.8
20260906072448 21 34 0.0 0.0 0.00 0.97 0.00 100 1015.7
20260906071505 21 34 0.0 0.0 0.00 0.97 0.00 100 1015.8
20260906070529 21 34 0.0 0.0 0.00 0.97 0.00 100 1015.9
20260906065501 21 34 0.0 0.0 0.00 0.97 0.00 100 1015.7
20260906064459 21 34 0.0 0.0 0.00 0.97 0.00 100 1015.9
20260906063523 21 34 0.0 0.0 0.00 0.97 0.00 100 1015.9
20260906062459 21 34 0.0 0.0 0.00 0.97 0.00 100 1015.9
20260906061457 21 34 0.0 0.0 0.00 0.97 0.00 100 1016.1
20260906060516 21 34 0.0 0.0 0.00 0.97 0.00 100 1016.2
20260906055515 21 34 0.0 0.0 0.00 0.97 0.00 100 1016.5
20260906054511 21 34 0.0 0.0 0.00 0.97 0.00 100 1016.5
20260906053451 21 34 0.0 0.0 0.00 0.97 0.00 100 1016.7
20260906052452 22 34 0.0 0.0 0.00 0.97 0.00 100 1016.7
20260906051449 22 34 0.0 0.0 0.00 0.97 0.00 100 1016.8
20260906050528 22 34 0.0 0.0 0.00 0.97 0.00 100 1016.8
20260906045501 22 34 0.0 0.0 0.00 0.97 0.00 100 1016.8
20260906044524 22 34 0.0 0.0 0.00 0.97 0.00 99 1016.7
20260906043523 22 34 0.0 0.0 0.00 0.97 0.00 99 1016.6
20260906042459 22 34 0.0 0.0 0.00 0.97 0.00 99 1016.6
20260906041458 22 34 0.0 0.0 0.00 0.97 0.00 100 1016.6
20260906040541 22 34 0.0 0.0 0.00 0.97 0.00 100 1016.7
20260906035453 22 34 0.0 0.0 0.00 0.97 0.97 100 1016.9
20260906034451 22 34 0.0 0.0 0.00 0.97 0.97 100 1016.7
20260906033515 22 34 0.0 0.0 0.00 0.97 0.97 99 1016.8
20260906032452 22 34 0.0 0.0 0.00 0.97 0.97 99 1016.9
20260906031511 22 34 0.0 0.0 0.00 0.97 0.97 99 1017.0
20260906030530 22 34 0.0 0.0 0.00 0.97 0.97 99 1017.2
20260906025508 22 34 0.0 0.0 0.00 0.97 0.97 99 1017.5
20260906024505 22 34 0.0 0.0 0.00 0.97 0.97 99 1017.4
20260906023505 22 32 0.0 0.0 0.00 0.97 0.97 99 1017.3
20260906022506 22 32 0.0 0.0 0.00 0.97 0.97 99 1017.0
20260906021505 22 32 0.0 0.0 0.00 0.97 0.97 99 1017.1
20260906020543 22 32 0.0 0.0 0.00 0.97 0.97 99 1017.1
20260906015456 22 32 0.0 0.0 0.00 0.97 0.97 99 1016.9
20260906014458 22 32 0.0 0.0 0.00 0.97 0.97 99 1016.9
20260906013518 22 32 0.0 0.0 0.00 0.97 0.97 99 1017.3
20260906012515 22 32 0.0 0.0 0.00 0.97 0.97 99 1017.2
20260906011457 22 73 0.0 4.8 0.00 0.97 0.97 99 1016.9
20260906010537 22 204 3.2 6.4 0.00 0.97 0.97 99 1016.8
20260906005510 22 161 0.0 0.0 0.00 0.97 0.97 99 1015.6
20260906004508 22 161 0.0 0.0 0.00 0.97 0.97 99 1015.6
20260906003511 22 161 0.0 0.0 0.00 0.97 0.97 99 1015.6
20260906002509 22 161 0.0 0.0 0.00 0.97 0.97 99 1015.4
20260906001527 22 161 0.0 0.0 0.00 0.97 0.97 99 1015.4
20260906000530 22 161 0.0 0.0 0.00 0.97 0.97 98 1015.0
20260905235523 22 161 0.0 0.0 0.00 0.97 0.97 98 1014.5
20260905234500 23 161 0.0 0.0 0.00 0.97 0.97 98 1014.5
20260905233519 23 161 0.0 0.0 0.00 0.97 0.97 98 1014.5
20260905232500 23 161 0.0 0.0 0.00 0.97 0.97 98 1014.7
20260905231519 23 161 0.0 0.0 0.00 0.97 0.97 98 1015.1
20260905230538 23 161 0.0 0.0 0.36 0.97 0.97 97 1015.2
20260905225516 23 168 0.0 0.0 0.76 0.97 0.97 97 1015.3
20260905224513 23 168 0.0 9.7 0.79 0.97 0.97 96 1015.8
20260905223513 23 221 3.2 17.7 0.97 0.97 0.97 95 1015.9
20260905222515 23 122 1.6 4.8 0.97 0.97 0.97 96 1016.2
20260905221513 23 114 1.6 9.7 0.97 0.97 0.97 93 1015.8
20260905220533 25 73 14.5 37.0 0.61 0.61 0.61 88 1017.7
20260905215526 27 294 9.7 14.5 0.20 0.20 0.20 83 1014.6
20260905214507 30 280 3.2 12.9 0.18 0.18 0.18 74 1014.6
20260905213507 34 346 3.2 6.4 0.00 0.00 0.00 57 1014.3
20260905212504 35 94 3.2 4.8 0.00 0.00 0.00 59 1014.0
20260905211507 35 94 1.6 3.2 0.00 0.00 0.00 54 1013.9
20260905210546 36 94 1.6 4.8 0.00 0.00 0.00 52 1014.0
20260905205519 35 95 0.0 4.8 0.00 0.00 0.00 55 1014.2
20260905204517 35 89 1.6 8.0 0.00 0.00 0.00 54 1014.2
20260905203520 35 85 1.6 9.7 0.00 0.00 0.00 54 1014.4
20260905202518 35 108 0.0 6.4 0.00 0.00 0.00 55 1014.5
20260905201516 35 117 1.6 9.7 0.00 0.00 0.00 54 1014.9
20260905200540 35 138 1.6 8.0 0.00 0.00 0.00 54 1014.9
20260905195513 35 4 1.6 6.4 0.00 0.00 0.00 54 1015.0
20260905194511 35 107 1.6 4.8 0.00 0.00 0.00 55 1015.1
20260905193514 35 178 0.0 6.4 0.00 0.00 0.00 55 1015.1
20260905192533 35 109 1.6 6.4 0.00 0.00 0.00 58 1015.3
20260905191530 35 326 1.6 4.8 0.00 0.00 0.00 56 1015.4
20260905190548 35 335 0.0 3.2 0.00 0.00 0.00 56 1015.5
20260905185526 35 322 0.0 1.6 0.00 0.00 0.00 56 1015.7
20260905184524 35 322 0.0 4.8 0.00 0.00 0.00 55 1015.8
20260905183524 35 97 1.6 3.2 0.00 0.00 0.00 56 1015.8
20260905182542 34 287 0.0 4.8 0.00 0.00 0.00 56 1016.1
20260905181523 35 289 3.2 4.8 0.00 0.00 0.00 57 1016.1
20260905180543 35 297 3.2 6.4 0.00 0.00 0.00 57 1016.2
20260905175516 35 238 0.0 8.0 0.00 0.00 0.00 56 1016.2
20260905174518 35 195 0.0 6.4 0.00 0.00 0.00 57 1016.5
20260905173517 35 52 1.6 8.0 0.00 0.00 0.00 57 1016.6
20260905172514 36 175 3.2 9.7 0.00 0.00 0.00 60 1016.7
20260905171537 35 56 1.6 6.4 0.00 0.00 0.00 57 1016.8
20260905170557 35 159 1.6 4.8 0.00 0.00 0.00 63 1017.0
20260905165529 35 232 1.6 4.8 0.00 0.00 0.00 58 1017.1
20260905164527 35 85 1.6 4.8 0.00 0.00 0.00 60 1017.1
20260905163552 34 278 1.6 3.2 0.00 0.00 0.00 61 1017.3